EHI
23 25 25 20 13 11 9 7 5 3 2 2 1 2 3 3 4 5 5 5 2 1 1 2 3 3 3 2 1 0 0 0 0 0 0 0 0 0 0 0 0 0 0
22 23 22 18 14 12 10 7 4 3 1 1 1 2 2 3 4 5 6 5 4 3 2 3 3 3 3 3 2 1 0 0 0 0 0 0 0 0 0 0 0 0 0
22 21 19 17 15 12 9 6 4 3 1 0 0 1 1 2 4 5 5 5 5 4 3 3 3 3 3 3 3 2 1 0 0 0 0 0 0 0 0 0 0 0 0
20 18 16 16 14 11 8 6 5 3 1 0 0 0 0 1 1 2 3 3 3 3 2 2 2 1 1 2 2 2 1 0 0 0 0 0 0 0 0 0 0 0 0
13 12 11 11 11 10 8 6 6 5 3 1 1 1 0 0 0 0 1 1 1 1 1 1 1 0 0 1 1 1 1 0 0 0 0 0 0 0 0 0 0 0 0
8 8 7 7 9 9 9 8 7 6 4 2 2 2 1 0 0 0 0 0 0 0 0 0 0 0 0 0 0 0 0 0 0 0 0 0 0 0 0 0 0 0 0
6 6 6 7 8 9 9 9 8 5 3 2 2 2 1 0 0 0 0 0 0 0 0 0 0 0 0 0 0 0 0 0 0 0 0 0 0 0 0 0 0 0 0
7 7 7 7 7 6 7 8 6 4 2 2 1 1 0 0 0 0 0 0 0 0 0 0 0 0 0 0 0 0 0 0 0 0 0 0 0 0 0 0 0 0 0
7 7 6 5 4 4 4 4 2 1 1 1 1 0 0 0 0 0 0 0 0 0 0 0 0 0 0 0 0 0 0 0 0 0 0 0 0 0 0 0 0 0 0
5 5 4 3 3 3 2 1 0 0 0 0 0 0 0 0 0 0 0 0 0 0 0 0 0 0 0 0 0 0 0 0 0 0 0 0 0 0 0 0 0 0 0
4 4 3 3 3 1 1 0 0 0 0 0 0 0 0 0 0 0 0 0 0 0 0 0 0 0 0 0 0 0 0 0 0 0 0 0 0 0 0 0 0 0 0
2 2 2 2 2 1 0 0 0 0 0 0 0 0 0 0 0 0 0 0 0 0 0 0 0 0 0 0 0 0 0 0 0 0 0 0 0 0 0 0 0 0 0
1 1 1 1 1 0 0 0 0 0 0 0 0 0 0 0 0 0 0 0 0 0 0 0 0 0 0 0 0 0 0 0 0 0 0 0 0 0 0 0 0 0 0
1 0 0 0 0 0 0 0 0 0 0 0 0 0 0 0 0 0 0 0 0 0 0 0 0 0 0 0 0 0 0 0 0 0 0 0 0 0 0 0 0 0 0
1 1 1 1 0 0 0 0 0 0 0 0 0 0 0 0 0 0 0 0 0 0 0 0 0 0 0 0 0 0 0 0 0 0 0 0 0 0 0 0 0 0 0
1 2 2 1 0 0 0 0 0 0 0 0 0 0 0 0 0 0 0 0 0 0 0 0 0 0 0 0 0 0 0 0 0 0 0 0 0 0 0 0 0 0 0
1 1 1 0 0 0 0 0 0 0 0 0 0 0 0 0 0 0 0 0 0 0 0 0 0 0 0 0 0 0 0 0 0 0 0 0 0 0 0 0 0 0 0
0 0 0 0 0 0 0 0 0 0 0 0 0 0 0 0 0 0 0 0 0 0 0 0 0 0 0 0 0 0 0 0 0 0 0 0 0 0 0 0 0 0 0
0 0 0 0 0 0 0 0 0 0 0 0 0 0 0 0 0 0 0 0 0 0 0 0 0 0 0 0 0 0 0 0 0 0 0 0 0 0 0 0 0 0 0
0 0 0 0 0 0 0 0 0 0 0 0 0 0 0 0 0 0 0 0 0 0 0 0 0 0 0 0 0 0 0 0 0 0 0 0 0 0 0 0 0 0 0
0 0 0 0 0 0 0 0 0 0 0 0 0 0 0 0 0 0 0 0 0 0 0 0 0 0 0 0 0 0 0 0 0 0 0 0 0 0 0 0 0 0 0
0 0 0 0 0 0 0 0 0 0 0 0 0 0 0 0 0 0 0 0 0 0 0 0 0 0 0 0 0 0 0 0 0 0 0 0 0 0 0 0 0 0 0
0 0 0 0 0 0 0 0 0 0 0 0 0 0 0 0 0 0 0 0 0 0 0 0 0 0 0 0 0 0 0 0 0 0 0 0 0 0 0 0 0 0 0
0 0 0 0 0 0 0 0 0 0 0 0 0 0 0 0 0 0 0 0 0 0 0 0 0 0 0 0 0 0 0 0 0 0 0 0 0 0 0 0 0 0 0
0 0 0 0 0 0 0 0 0 0 0 0 0 0 0 0 0 0 0 0 0 0 0 0 0 0 0 0 0 0 0 0 0 0 0 0 0 0 0 0 0 0 0
0 0 0 0 0 0 0 0 0 0 0 0 0 0 0 0 0 0 0 0 0 0 0 0 0 0 0 0 0 0 0 0 0 0 0 0 0 0 0 0 0 0 0
Wind_Speed
5 5 5 4 4 3 3 3 4 4 4 4 5 5 5 5 4 4 4 4 4 4 4 4 5 4 3 3 2 2 2 3 4 3 2 2 1 2 1 2 2 3 3
5 4 4 4 3 3 3 3 3 3 3 4 4 4 4 4 4 4 5 4 4 4 3 3 4 3 3 3 2 2 2 3 3 3 2 1 1 1 1 1 1 1 2
4 4 4 4 4 3 3 2 2 3 3 3 3 3 3 3 3 3 3 3 2 3 2 3 3 2 2 2 2 2 2 2 2 2 2 1 1 0 0 1 1 1 1
3 4 4 4 4 3 3 2 2 3 3 2 2 2 2 2 2 2 2 2 2 1 1 1 1 1 2 2 1 2 1 1 1 1 1 1 1 1 1 1 1 1 1
4 4 3 3 3 3 3 2 2 3 3 2 3 2 2 2 2 2 2 2 2 1 1 1 1 2 2 1 1 1 1 1 1 1 0 0 1 1 0 0 0 1 1
4 4 3 3 3 3 3 3 3 3 3 3 3 3 3 2 3 4 4 3 2 2 1 1 1 2 2 3 4 4 3 2 2 1 1 0 1 1 0 0 0 1 1
3 3 3 3 3 3 4 4 4 3 4 4 4 4 4 4 5 5 5 3 3 3 3 2 2 3 3 3 4 5 5 4 2 2 1 1 1 1 1 1 0 1 1
3 3 3 3 4 4 4 5 4 4 4 4 4 5 5 5 6 6 6 5 5 5 4 4 4 4 4 3 4 4 4 4 3 2 1 0 0 0 1 2 1 0 1
4 3 3 4 4 5 5 5 4 4 5 5 5 5 6 5 6 6 6 5 5 5 5 5 4 4 5 6 5 5 4 4 5 5 4 4 4 4 2 2 2 2 1
3 3 3 4 5 5 5 5 4 5 6 6 6 5 5 5 6 7 6 4 5 4 4 5 8 7 7 6 4 4 4 2 3 4 5 6 5 6 5 2 1 1 1
4 5 5 5 5 6 5 5 6 6 7 7 7 6 6 6 7 8 7 4 4 4 4 4 5 8 9 8 7 5 4 3 4 4 4 4 4 4 4 4 2 2 2
6 7 6 5 5 6 7 7 7 7 8 7 7 6 5 5 6 7 9 8 6 5 4 3 5 9 10 10 8 8 8 6 4 4 4 4 4 4 3 4 4 3 1
8 7 7 7 6 6 7 7 6 6 6 5 5 5 4 4 6 9 9 9 9 6 5 7 8 10 9 8 10 10 8 5 5 5 4 3 3 3 3 3 4 4 3
8 7 7 7 7 7 6 5 5 5 5 5 5 4 4 4 4 3 4 5 7 7 6 8 10 11 9 8 7 7 5 5 4 4 3 2 3 3 3 3 3 3 3
8 7 6 6 7 7 7 6 5 3 3 6 4 4 4 4 2 4 5 4 4 4 5 5 5 5 5 5 5 5 5 5 5 3 3 3 3 4 3 3 2 2 2
7 6 5 5 5 6 7 8 12 9 11 11 9 7 5 6 7 10 10 10 10 9 7 6 5 4 4 3 3 4 4 4 3 3 3 3 3 3 3 3 3 3 2
7 6 5 5 5 5 6 7 7 8 12 12 11 11 10 9 10 11 11 12 11 10 7 5 4 3 3 3 3 3 3 3 3 3 3 3 3 3 3 3 3 3 3
6 7 6 5 5 5 5 5 5 6 5 4 6 9 10 10 10 11 11 10 7 6 4 4 3 3 3 3 3 3 3 4 4 4 4 4 3 3 3 3 3 3 3
5 5 5 5 5 5 5 5 5 5 5 4 3 4 7 9 10 10 9 6 5 4 3 3 3 3 3 3 3 3 3 3 4 3 4 4 3 3 3 3 3 5 3
5 8 7 5 5 5 5 5 5 5 4 4 3 3 3 5 5 5 5 4 4 4 4 4 4 4 4 3 3 3 3 4 4 4 3 3 3 3 3 3 3 3 2
5 6 8 6 5 5 5 5 5 5 4 4 3 3 6 5 4 4 3 3 3 3 3 4 3 3 3 3 3 3 4 3 3 3 3 3 3 3 3 3 3 3 2
5 5 5 5 5 5 5 5 5 5 5 5 3 4 8 5 3 3 3 3 3 3 3 3 3 2 2 2 2 2 2 2 3 3 3 3 3 3 3 3 3 3 3
6 6 5 5 5 7 6 5 5 5 5 4 4 4 4 3 3 3 3 3 3 3 3 3 3 2 2 2 2 1 1 1 2 2 2 3 3 3 3 3 3 3 3
6 6 7 6 6 5 5 5 4 5 5 4 4 4 3 3 3 3 3 3 3 3 2 3 3 3 3 2 2 1 1 1 2 2 2 2 3 3 3 3 3 4 3
6 6 6 6 6 5 5 5 4 5 4 4 4 3 3 3 3 2 2 2 3 3 3 3 2 2 3 2 2 2 3 3 3 2 2 2 3 3 3 3 3 3 3
6 6 6 5 5 5 5 4 4 4 4 3 3 3 3 3 2 2 2 2 3 3 2 2 2 2 2 1 2 3 4 4 4 4 2 1 2 3 3 3 4 3 3
Wind_Direction
181 181 179 182 184 183 189 193 190 188 185 184 193 195 197 196 192 188 194 189 204 224 223 218 227 218 215 218 211 204 202 182 213 251 241 260 254 247 234 220 223 220 225
181 173 176 174 169 175 188 189 183 184 183 185 184 184 195 198 194 192 200 192 196 216 226 228 239 225 218 219 203 210 215 198 193 231 259 273 257 243 229 230 241 225 229
169 164 167 167 165 172 180 175 162 157 152 153 159 173 185 190 189 191 187 182 192 209 212 215 236 219 221 220 195 209 218 197 177 195 244 258 269 341 72 0 17 344 284
150 156 162 167 161 164 166 154 142 138 137 133 133 155 161 155 158 163 159 169 181 194 197 209 235 209 202 205 190 206 186 156 159 176 224 260 284 297 85 44 3 355 340
120 134 153 153 148 148 140 132 118 115 121 123 119 121 126 130 139 137 139 144 151 144 86 70 72 80 93 128 137 143 131 136 137 140 201 41 353 14 21 334 255 310 337
120 122 124 128 132 140 138 132 122 115 109 103 106 104 95 93 92 104 114 113 112 116 105 76 69 64 78 83 87 89 109 148 164 158 190 164 268 264 299 47 318 58 333
117 130 135 137 138 139 134 120 117 116 103 98 93 93 91 79 86 92 101 103 91 83 83 77 69 60 65 84 80 71 63 66 113 160 162 226 235 245 175 111 95 140 214
99 108 124 132 134 126 120 117 116 111 109 101 93 91 88 75 80 84 88 86 77 67 63 67 73 58 56 72 84 73 62 50 58 88 123 186 148 225 163 180 192 152 12
89 94 107 122 125 119 118 121 120 111 103 98 94 93 89 73 74 87 93 86 77 62 56 54 64 64 55 74 83 82 69 47 48 61 65 53 45 46 66 77 59 65 7
99 98 97 110 120 122 123 118 109 104 101 97 86 80 84 78 70 78 91 93 85 69 52 46 52 62 61 69 79 80 72 39 36 42 40 32 30 29 38 66 109 114 76
99 93 88 94 104 107 107 106 106 105 101 95 87 72 66 66 69 69 75 89 98 87 67 50 46 59 62 61 66 67 70 70 60 58 48 36 27 23 20 22 33 89 103
93 90 84 82 92 98 99 97 99 102 100 92 86 73 55 51 58 67 71 74 84 90 81 63 59 66 66 62 61 59 60 61 62 60 51 36 27 16 9 17 26 36 61
97 91 86 79 78 85 95 102 100 97 98 96 90 83 65 52 52 60 68 70 73 79 74 73 70 67 64 60 56 58 56 58 62 61 51 29 8 4 12 15 14 15 14
98 93 90 86 79 71 71 80 95 101 106 104 99 92 77 59 49 51 59 68 68 71 70 64 64 64 62 54 47 47 50 57 68 65 48 21 13 18 17 15 15 6 12
97 94 90 89 93 84 72 59 70 66 111 120 114 113 107 88 50 77 92 82 87 87 83 66 59 56 52 45 42 40 41 44 47 39 41 32 22 20 8 3 17 23 23
107 102 103 103 100 100 99 78 54 68 77 84 93 101 82 87 89 82 80 82 85 88 82 75 68 64 63 57 52 41 38 39 38 40 38 33 28 22 12 8 17 25 11
122 122 118 115 112 109 108 108 96 64 62 70 80 86 87 84 81 81 84 82 76 80 77 74 72 70 64 58 55 52 43 33 38 44 39 29 23 20 20 13 11 12 3
120 121 122 122 121 115 111 110 112 112 97 62 52 70 78 78 78 81 84 80 64 57 68 74 72 69 64 57 51 47 43 35 35 34 30 25 23 21 17 9 4 1 350
121 122 121 118 114 114 114 111 106 104 103 97 75 56 67 77 75 72 75 79 84 72 63 65 66 64 57 54 53 51 48 42 35 32 27 22 17 18 10 358 355 357 1
111 122 122 119 117 116 115 113 109 106 104 100 95 94 83 80 76 67 66 76 83 83 77 74 68 66 62 55 49 45 42 35 29 27 17 10 5 10 3 354 352 352 341
99 106 110 108 111 118 120 118 117 114 111 104 98 103 113 100 99 95 88 83 88 91 91 85 74 67 64 56 49 44 44 35 24 14 4 356 355 353 344 340 340 341 334
99 98 100 103 105 106 113 115 115 118 118 111 97 90 96 90 90 96 94 90 88 92 100 98 86 76 75 68 58 50 40 27 7 355 347 342 341 339 338 338 338 335 333
100 99 95 95 99 104 102 100 104 108 109 108 104 95 93 93 94 99 97 93 90 88 91 98 98 79 61 60 61 70 59 357 316 315 324 326 328 328 328 325 323 324 325
98 99 100 99 98 101 104 105 107 109 107 105 102 103 105 108 109 110 105 100 99 97 98 101 103 100 88 66 51 44 16 317 302 293 298 302 310 315 322 327 323 321 324
97 98 100 103 104 104 102 100 101 105 108 110 108 106 106 109 110 107 103 108 113 111 113 113 109 99 92 74 46 4 339 337 328 314 298 301 313 317 321 321 323 328 332
99 102 103 104 105 106 107 108 107 109 112 114 114 115 120 119 117 111 106 108 110 109 110 113 114 104 88 58 22 1 348 344 341 336 322 322 335 334 337 329 329 332 330